Location: Benson Historical Museum
(37.4682°N, 96.2633°W)
Time: 15:31:22
(UTC+00:00)

Daily predictions for brighter satellites

Satellite Brightness Start Highest point End
(mag) Time Altitude Azimuth Time Altitude Azimuth Time Altitude Azimuth
Cosmos 921 Rocket 4.4 12:03:31 18° WSW 12:03:31 18° WSW 12:06:10 10° SW
USA 116 3.4 12:01:02 10° SSE 12:04:07 67° ENE 12:07:13 10° N
METEOR-M 4.2 12:02:04 10° N 12:07:18 56° WNW 12:12:29 10° SSW
Cosmos 2061 Rocket 4.1 12:01:18 10° NNW 12:07:19 52° W 12:13:16 10° SSW
Cosmos 1484 Rocket 3.8 12:04:17 10° NNW 12:07:36 26° WNW 12:10:55 10° SW
Cosmos 1328 Rocket 3.5 12:06:03 10° SSW 12:10:28 68° W 12:14:54 10° N
CZ-4B R/B 3.4 12:06:05 10° NNE 12:11:23 74° ESE 12:16:40 10° S
CZ-4B DEB 4.1 12:06:44 10° N 12:12:10 68° WNW 12:17:33 10° SSW
Cosmos 1864 Rocket 4.5 12:07:28 10° NNW 12:13:30 59° W 12:19:33 10° S
STARLINK-1132 4.0 12:15:20 10° NNW 12:18:05 36° NE 12:20:50 10° ESE
STARLINK-1150 4.0 12:15:40 10° NNW 12:18:25 37° NE 12:21:09 10° ESE
OAO 3 Rocket 4.3 12:14:01 10° SW 12:18:35 41° SSE 12:23:13 10° E
STARLINK-1167 4.0 12:16:40 10° NNW 12:19:25 37° NE 12:22:09 10° ESE
STARLINK-1163 4.0 12:16:45 10° NNW 12:19:29 37° NE 12:22:12 10° ESE
STARLINK-1153 4.2 12:17:10 10° NNW 12:19:52 33° NE 12:22:34 10° ESE
STARLINK-1180 4.2 12:17:21 10° NNW 12:20:05 33° NE 12:22:48 10° ESE
STARLINK-1177 3.9 12:17:34 10° NNW 12:20:18 38° NE 12:23:01 10° ESE
STARLINK-1174 4.2 12:17:49 10° NNW 12:20:33 34° NE 12:23:14 10° ESE
STARLINK-1139 4.2 12:18:03 10° NNW 12:20:47 34° NE 12:23:28 10° ESE
STARLINK-1133 4.2 12:18:16 10° NNW 12:20:59 34° NE 12:23:42 10° ESE
COSMOS 2455 4.5 12:15:40 10° N 12:21:06 34° NE 12:26:29 10° ESE
STARLINK-1173 3.9 12:18:26 10° NW 12:21:11 39° NE 12:23:56 10° ESE
STARLINK-1151 4.2 12:18:30 10° NNW 12:21:14 34° NE 12:23:56 10° ESE
Cosmos 1850 Rocket 4.4 12:16:49 10° SW 12:21:50 43° WNW 12:26:50 10° N
STARLINK-1160 4.1 12:19:10 10° NNW 12:21:54 35° NE 12:24:37 10° ESE
STARLINK-1161 4.1 12:19:23 10° NNW 12:22:07 35° NE 12:24:51 10° ESE
Iridium 51 4.1 12:18:22 10° SSW 12:22:07 57° W 12:25:39 10° N
STARLINK-1145 4.1 12:19:37 10° NNW 12:22:21 35° NE 12:25:04 10° ESE
CZ-2C R/B 4.3 12:21:36 10° NW 12:22:30 10° WNW 12:23:25 10° WNW
STARLINK-1172 4.1 12:19:49 10° NNW 12:22:34 35° NE 12:25:17 10° ESE
STARLINK-1182 4.1 12:20:17 10° NNW 12:23:02 36° NE 12:25:46 10° ESE
STARLINK-1164 4.1 12:20:31 10° NNW 12:23:16 36° NE 12:26:00 10° ESE
STARLINK-1168 4.1 12:20:44 10° NNW 12:23:28 36° NE 12:26:13 10° ESE
Cosmos 1862 4.3 12:20:19 10° NW 12:23:36 25° W 12:26:53 10° SW
STARLINK-1183 4.0 12:21:24 10° NNW 12:24:09 37° NE 12:26:53 10° ESE
STARLINK-1181 4.0 12:21:38 10° NNW 12:24:23 37° NE 12:27:08 10° ESE
STARLINK-1136 3.7 12:21:41 10° NW 12:24:28 42° NE 12:27:13 10° ESE
STARLINK-1196 4.0 12:22:17 10° NNW 12:25:04 37° NE 12:27:50 10° ESE
STARLINK-1186 4.0 12:22:44 10° NNW 12:25:29 38° NE 12:28:15 10° ESE
STARLINK-1185 4.0 12:22:57 10° NNW 12:25:43 38° NE 12:28:28 10° ESE
STARLINK-1179 3.5 12:23:06 10° NW 12:25:50 47° NE 12:28:34 10° ESE
STARLINK-1175 4.0 12:23:10 10° NNW 12:25:57 38° NE 12:28:42 10° ESE
STARLINK-1147 3.9 12:23:23 10° NNW 12:26:10 38° NE 12:28:56 10° ESE
STARLINK-1176 3.5 12:23:33 10° NW 12:26:18 47° NE 12:29:00 10° ESE
STARLINK-1146 3.9 12:23:36 10° NNW 12:26:25 39° NE 12:29:11 10° ESE
STARLINK-1152 3.9 12:23:51 10° NNW 12:26:39 39° NE 12:29:25 10° ESE
STARLINK-1195 3.9 12:24:03 10° NW 12:26:51 39° NE 12:29:37 10° ESE
STARLINK-1137 3.9 12:24:18 10° NW 12:27:05 39° NE 12:29:52 10° ESE
STARLINK-1156 4.4 12:23:49 10° NNW 12:27:06 38° NE 12:30:22 10° ESE
STARLINK-1142 3.9 12:24:31 10° NW 12:27:19 39° NE 12:30:05 10° ESE
STARLINK-1127 3.9 12:24:44 10° NW 12:27:32 40° NE 12:30:19 10° ESE
Cosmos 1606 2.7 12:23:53 10° SSW 12:27:37 58° W 12:31:21 10° N
STARLINK-1184 3.9 12:24:58 10° NW 12:27:46 40° NE 12:30:33 10° ESE
STARLINK-1193 3.9 12:25:12 10° NW 12:28:00 40° NE 12:30:47 10° ESE
STARLINK-1194 3.9 12:25:24 10° NW 12:28:12 40° NE 12:30:59 10° ESE
Okean O Rocket 1.6 12:24:58 10° N 12:29:17 64° WNW 12:33:34 10° SSW
STARLINK-1148 4.3 12:26:39 10° NW 12:29:58 40° NE 12:33:15 10° ESE
Meteor 2-20 Rocket 4.4 12:24:05 10° S 12:30:09 82° W 12:36:16 10° N
COSMOS 2406 3.6 12:24:58 10° S 12:30:35 69° ESE 12:36:13 10° NNE
STARLINK-1158 4.2 12:29:28 10° NW 12:32:48 43° NE 12:36:08 10° ESE
DELTA 2 R/B (1) 3.7 12:27:59 10° W 12:33:34 73° N 12:39:08 10° E
Cosmos 1447 Rocket 4.4 12:27:31 10° SSW 12:33:37 69° W 12:39:45 10° N
Cosmos 1346 Rocket 2.7 12:30:57 10° NNW 12:34:47 62° W 12:38:37 10° S
Cosmos 1515 Rocket 3.6 12:31:35 10° SSW 12:35:57 59° W 12:40:19 10° N
Cosmos 1633 Rocket 3.7 12:32:31 10° NNW 12:36:27 33° W 12:40:23 10° SSW
TELKOM 3 4.4 12:35:22 10° NNW 12:37:16 28° NNE 12:39:11 10° E
COSMO-SKYMED 1 3.7 12:35:13 10° SSW 12:38:37 22° W 12:42:02 10° NW
